TimeCDT,TemperatureF,Dew PointF,Humidity,Sea Level PressureIn,VisibilityMPH,Wind Direction,Wind SpeedMPH,Gust SpeedMPH,PrecipitationIn,Events,Conditions,WindDirDegrees,DateUTC
12:15 AM,64.9,62.6,92,30.11,10.0,South,5.8,-,N/A,,Scattered Clouds,190,2013-08-19 05:15:00
12:35 AM,65.7,62.6,90,30.10,10.0,South,8.1,-,N/A,,Scattered Clouds,190,2013-08-19 05:35:00
12:55 AM,64.8,62.6,93,30.09,10.0,South,6.9,-,N/A,,Clear,190,2013-08-19 05:55:00
1:15 AM,63.9,62.6,96,30.08,10.0,South,6.9,-,N/A,,Clear,180,2013-08-19 06:15:00
1:35 AM,63.5,63.0,98,30.08,10.0,South,6.9,-,N/A,,Clear,180,2013-08-19 06:35:00
1:55 AM,63.0,62.6,99,30.07,10.0,South,8.1,-,N/A,,Clear,190,2013-08-19 06:55:00
2:15 AM,63.3,62.6,97,30.07,10.0,South,5.8,-,N/A,,Clear,190,2013-08-19 07:15:00
2:35 AM,63.3,62.6,97,30.06,10.0,South,5.8,-,N/A,,Clear,190,2013-08-19 07:35:00
2:55 AM,62.6,62.1,98,30.06,10.0,SSW,6.9,-,N/A,,Clear,200,2013-08-19 07:55:00
3:15 AM,63.9,62.6,96,30.07,10.0,South,8.1,-,N/A,,Clear,190,2013-08-19 08:15:00
3:35 AM,63.3,62.6,97,30.07,10.0,South,6.9,-,N/A,,Clear,190,2013-08-19 08:35:00
3:55 AM,63.5,62.8,97,30.08,10.0,South,6.9,-,N/A,,Clear,180,2013-08-19 08:55:00
4:15 AM,63.3,63.0,99,30.08,10.0,South,4.6,-,N/A,,Mostly Cloudy,190,2013-08-19 09:15:00
4:35 AM,63.9,63.5,99,30.07,10.0,SSW,4.6,-,N/A,,Overcast,200,2013-08-19 09:35:00
4:55 AM,63.7,63.1,98,30.07,10.0,South,4.6,-,N/A,,Mostly Cloudy,180,2013-08-19 09:55:00
5:15 AM,63.5,63.5,100,30.07,7.0,South,5.8,-,N/A,,Mostly Cloudy,180,2013-08-19 10:15:00
5:35 AM,63.9,63.9,100,30.07,7.0,South,5.8,-,N/A,,Overcast,180,2013-08-19 10:35:00
5:55 AM,63.0,63.0,100,30.07,7.0,South,5.8,-,N/A,,Scattered Clouds,180,2013-08-19 10:55:00
6:15 AM,63.0,63.0,100,30.07,7.0,South,5.8,-,N/A,,Mostly Cloudy,180,2013-08-19 11:15:00
6:35 AM,62.6,62.6,100,30.07,7.0,South,5.8,-,N/A,,Mostly Cloudy,170,2013-08-19 11:35:00
6:55 AM,62.4,62.4,100,30.07,5.0,South,5.8,-,N/A,,Scattered Clouds,170,2013-08-19 11:55:00
7:15 AM,63.0,63.0,100,30.07,5.0,South,5.8,-,N/A,,Overcast,170,2013-08-19 12:15:00
7:35 AM,63.5,63.5,100,30.07,5.0,South,5.8,-,N/A,,Overcast,170,2013-08-19 12:35:00
7:55 AM,64.0,64.0,100,30.07,5.0,South,6.9,-,N/A,,Overcast,170,2013-08-19 12:55:00
8:15 AM,65.5,65.3,99,30.08,7.0,South,6.9,-,N/A,,Mostly Cloudy,170,2013-08-19 13:15:00
8:35 AM,67.5,66.2,96,30.08,7.0,South,9.2,-,N/A,,Scattered Clouds,180,2013-08-19 13:35:00
8:55 AM,69.6,66.0,88,30.08,10.0,South,10.4,-,N/A,,Clear,190,2013-08-19 13:55:00
9:15 AM,70.9,64.8,81,30.08,10.0,South,10.4,-,N/A,,Clear,190,2013-08-19 14:15:00
9:35 AM,72.5,65.5,79,30.08,10.0,SSW,9.2,-,N/A,,Mostly Cloudy,200,2013-08-19 14:35:00
9:55 AM,73.2,64.6,74,30.08,10.0,South,10.4,-,N/A,,Overcast,180,2013-08-19 14:55:00
10:15 AM,74.3,64.4,71,30.08,10.0,South,10.4,-,N/A,,Overcast,190,2013-08-19 15:15:00
10:35 AM,76.1,65.3,69,30.08,10.0,SSW,11.5,-,N/A,,Scattered Clouds,200,2013-08-19 15:35:00
10:55 AM,77.2,65.3,67,30.08,10.0,South,11.5,-,N/A,,Scattered Clouds,190,2013-08-19 15:55:00
11:15 AM,77.4,65.7,67,30.08,10.0,South,9.2,-,N/A,,Mostly Cloudy,180,2013-08-19 16:15:00
11:35 AM,79.3,65.5,62,30.08,10.0,South,16.1,-,N/A,,Scattered Clouds,190,2013-08-19 16:35:00
11:55 AM,79.2,64.8,61,30.08,10.0,SSW,10.4,-,N/A,,Scattered Clouds,200,2013-08-19 16:55:00
12:15 PM,80.2,65.5,61,30.07,10.0,South,15.0,-,N/A,,Scattered Clouds,180,2013-08-19 17:15:00
12:35 PM,80.6,65.5,60,30.06,10.0,South,16.1,-,N/A,,Clear,180,2013-08-19 17:35:00
12:55 PM,81.7,65.7,58,30.05,10.0,South,16.1,19.6,N/A,,Clear,190,2013-08-19 17:55:00
1:15 PM,82.2,65.3,56,30.05,10.0,South,16.1,-,N/A,,Clear,190,2013-08-19 18:15:00
1:35 PM,82.8,65.7,56,30.04,10.0,South,17.3,-,N/A,,Clear,190,2013-08-19 18:35:00
1:55 PM,82.9,65.8,56,30.04,10.0,SSW,13.8,20.7,N/A,,Clear,200,2013-08-19 18:55:00
2:15 PM,83.5,65.8,55,30.03,10.0,SSW,15.0,20.7,N/A,,Clear,200,2013-08-19 19:15:00
2:35 PM,83.8,66.0,55,30.03,10.0,South,16.1,-,N/A,,Clear,180,2013-08-19 19:35:00
2:55 PM,83.7,65.5,54,30.02,10.0,South,16.1,21.9,N/A,,Clear,190,2013-08-19 19:55:00
3:15 PM,83.8,65.7,54,30.01,10.0,South,13.8,23.0,N/A,,Scattered Clouds,180,2013-08-19 20:15:00
3:35 PM,84.2,65.8,54,30.01,10.0,South,17.3,23.0,N/A,,Clear,180,2013-08-19 20:35:00
3:55 PM,84.0,65.8,54,30.00,10.0,South,15.0,20.7,N/A,,Clear,190,2013-08-19 20:55:00
4:15 PM,84.0,66.4,55,29.99,10.0,South,16.1,21.9,N/A,,Scattered Clouds,180,2013-08-19 21:15:00
4:35 PM,84.4,66.9,56,29.99,10.0,South,12.7,18.4,N/A,,Scattered Clouds,190,2013-08-19 21:35:00
4:55 PM,84.9,67.1,55,29.99,10.0,SSW,11.5,17.3,N/A,,Scattered Clouds,200,2013-08-19 21:55:00
5:15 PM,84.2,66.6,55,29.99,10.0,SSW,12.7,18.4,N/A,,Scattered Clouds,200,2013-08-19 22:15:00
5:35 PM,84.2,66.2,55,29.99,10.0,South,13.8,-,N/A,,Scattered Clouds,190,2013-08-19 22:35:00
5:55 PM,83.7,66.2,56,29.98,10.0,South,11.5,-,N/A,,Clear,190,2013-08-19 22:55:00
6:15 PM,83.3,66.4,57,29.98,10.0,South,11.5,-,N/A,,Clear,190,2013-08-19 23:15:00
6:35 PM,82.6,66.9,59,29.98,10.0,South,10.4,-,N/A,,Clear,190,2013-08-19 23:35:00
6:55 PM,81.9,67.1,61,29.97,10.0,South,11.5,-,N/A,,Scattered Clouds,190,2013-08-19 23:55:00
7:15 PM,80.8,67.1,63,29.97,10.0,South,10.4,-,N/A,,Scattered Clouds,180,2013-08-20 00:15:00
7:35 PM,79.2,67.6,68,29.97,10.0,South,9.2,-,N/A,,Clear,170,2013-08-20 00:35:00
7:55 PM,77.5,67.6,71,29.97,10.0,South,6.9,-,N/A,,Clear,170,2013-08-20 00:55:00
8:15 PM,76.3,67.8,75,29.97,10.0,South,6.9,-,N/A,,Clear,170,2013-08-20 01:15:00
8:35 PM,75.2,67.6,77,29.97,10.0,SSE,6.9,-,N/A,,Clear,160,2013-08-20 01:35:00
8:55 PM,74.3,67.8,80,29.98,10.0,SSE,6.9,-,N/A,,Clear,160,2013-08-20 01:55:00
9:15 PM,73.8,68.0,82,29.98,10.0,SSE,6.9,-,N/A,,Clear,160,2013-08-20 02:15:00
9:35 PM,73.8,67.6,81,29.99,10.0,SSE,8.1,-,N/A,,Clear,160,2013-08-20 02:35:00
9:55 PM,73.4,67.5,82,29.99,10.0,SSE,6.9,-,N/A,,Clear,160,2013-08-20 02:55:00
10:15 PM,72.9,67.3,83,30.00,10.0,South,6.9,-,N/A,,Clear,170,2013-08-20 03:15:00
10:35 PM,72.3,67.1,84,30.00,10.0,South,6.9,-,N/A,,Clear,170,2013-08-20 03:35:00
10:55 PM,72.1,66.7,83,30.00,10.0,South,8.1,-,N/A,,Clear,180,2013-08-20 03:55:00
11:15 PM,72.0,66.6,83,30.00,10.0,South,9.2,-,N/A,,Clear,180,2013-08-20 04:15:00
11:35 PM,71.8,66.6,84,30.00,10.0,South,9.2,-,N/A,,Clear,180,2013-08-20 04:35:00
11:55 PM,71.8,66.6,84,29.99,10.0,South,10.4,-,N/A,,Clear,170,2013-08-20 04:55:00